Helicity
37 -1 -23 -4 16 61 105 198 178 187 177 197 116 41 35 43 61 86 66 49 48 101 138 142 156 147 190 223 208 211 228 196 158 76 61 63 111 127 102 133 143 121 91 87 205
90 59 46 39 16 10 26 63 171 172 175 162 173 180 34 32 60 59 53 30 58 48 148 176 158 162 210 195 224 244 224 180 119 71 49 97 84 102 140 183 173 174 123 160 219
95 60 25 26 38 35 32 42 89 122 81 128 168 115 73 65 59 40 33 12 20 49 95 137 199 191 229 233 242 219 172 180 90 66 36 57 93 51 118 166 156 166 142 164 203
37 14 1 27 53 80 45 2 24 92 128 139 157 161 129 118 73 72 62 -18 -12 37 103 149 189 228 226 228 233 184 147 114 33 49 29 26 61 67 74 106 177 196 216 174 164
19 31 29 34 36 39 25 22 25 54 136 164 156 132 132 174 86 20 98 15 10 92 98 154 186 214 196 175 227 179 195 121 64 65 42 39 48 54 42 72 168 154 197 210 190
-12 2 12 13 21 30 34 22 1 6 63 142 153 161 65 92 45 61 38 56 69 124 160 172 136 154 154 159 155 148 96 81 89 74 62 37 40 80 90 34 98 114 144 175 183
-13 1 7 2 -7 8 28 26 4 19 65 110 134 150 77 35 56 105 44 37 80 118 131 118 117 170 139 166 122 151 130 128 95 80 87 53 21 71 75 43 27 46 59 111 125
-5 -14 -15 -14 -10 -8 16 29 25 30 79 98 115 91 9 54 83 177 73 68 59 79 81 66 113 127 146 165 190 160 174 136 128 90 73 81 7 82 41 72 80 43 28 15 60
-7 -11 -26 -30 -24 -17 -21 19 33 36 88 119 94 74 63 39 86 94 108 88 65 73 71 78 91 121 156 184 213 217 161 139 133 76 107 121 50 22 55 99 89 62 60 28 31
-22 -32 -14 -33 -38 -23 -30 27 52 21 69 71 119 83 82 71 35 63 94 90 96 85 132 98 142 155 188 213 180 167 123 123 122 150 118 141 78 54 70 76 79 93 70 53 32
-6 -9 -6 -21 -24 -14 -24 3 2 17 125 162 45 115 132 86 96 81 81 104 113 129 161 139 150 139 92 110 130 139 153 138 124 119 78 64 68 52 31 40 35 38 34 28 11
-2 3 -4 -20 7 7 22 -1 -22 37 198 194 216 134 273 59 105 68 98 97 92 144 161 141 106 108 140 102 150 179 158 123 106 95 101 77 34 20 20 44 62 66 43 30 59
9 -13 -2 -10 18 57 -6 -9 13 61 217 112 130 143 63 80 99 108 68 110 107 102 162 89 126 71 73 89 98 103 90 92 93 113 56 59 18 64 64 71 79 79 65 29 11
-30 -37 -27 -15 41 79 -12 28 28 81 180 42 68 156 150 84 133 124 118 103 129 57 43 96 90 48 111 112 95 89 51 66 97 94 80 102 -3 40 68 66 21 32 47 75 96
43 6 -13 -17 98 33 2 13 45 123 271 71 170 154 185 162 102 138 153 118 101 133 86 74 84 56 101 90 93 67 63 57 54 59 63 81 77 18 67 87 51 90 105 81 64
27 17 -4 5 -6 15 18 45 81 205 152 113 132 145 174 97 181 184 189 154 119 121 155 116 109 111 110 139 95 69 90 74 49 44 100 48 87 32 20 21 72 168 190 107 111
29 2 3 12 29 31 27 102 202 83 179 154 197 148 143 124 150 217 159 150 106 124 135 160 139 122 106 150 143 108 104 110 125 133 73 36 51 4 -18 79 78 65 92 107 92
10 22 31 62 55 69 75 140 142 225 213 114 188 153 163 155 133 130 129 106 129 106 138 91 105 85 88 69 50 106 72 62 90 78 78 45 20 -9 11 82 63 54 53 104 178
31 61 64 69 81 97 73 30 211 318 290 162 221 190 174 148 111 65 97 83 61 64 73 96 98 97 73 76 64 56 68 62 39 10 31 43 26 1 61 100 160 118 102 107 103
87 89 98 97 97 51 189 228 196 277 264 228 177 116 98 113 118 81 57 33 50 47 53 46 68 68 81 71 105 50 46 66 93 37 32 31 27 16 32 58 54 61 66 35 4
93 111 113 78 41 106 143 189 171 158 178 141 74 104 111 123 68 73 49 47 29 38 43 56 44 53 52 28 48 86 71 82 71 60 30 30 1 12 9 22 37 14 -22 -18 5
88 55 119 115 56 98 123 151 89 102 108 101 33 84 83 94 72 74 30 43 19 34 35 46 19 38 25 40 28 48 39 75 68 45 60 41 51 -34 -31 34 17 -67 21 62 69
61 104 120 103 15 75 123 127 122 54 47 24 24 38 64 91 44 48 23 19 13 47 37 37 47 39 51 37 56 37 51 89 99 62 55 55 -8 34 48 17 1 38 59 69 63
46 23 93 94 101 53 49 56 27 44 15 6 31 56 96 79 54 34 46 53 -5 1 37 57 17 12 17 12 29 32 30 79 115 62 58 132 180 161 159 103 63 57 68 49 44
12 28 39 -2 -6 43 63 61 52 27 32 -10 -19 44 65 52 63 52 73 79 62 16 59 43 1 8 9 7 4 -2 -8 18 68 118 108 107 175 258 121 59 67 102 55 39 31
6 12 23 49 82 26 26 51 51 31 22 20 -51 -7 22 51 33 55 61 72 43 70 60 61 22 18 8 12 5 -10 -1 27 86 116 182 240 233 197 87 100 60 92 61 43 27
-36 -9 9 9 22 18 20 1 14 27 48 45 21 42 64 44 35 39 45 49 17 71 97 59 26 3 9 39 29 10 53 78 46 56 128 151 194 98 85 50 91 66 56 41 17
Wind_Speed
61 58 56 60 63 63 63 65 66 67 65 67 65 50 53 56 58 63 76 57 57 51 34 39 44 46 44 50 45 44 67 75 64 53 49 38 47 46 48 53 48 45 41 45 13
69 67 60 61 65 64 64 65 70 71 71 67 65 57 47 52 61 78 61 61 57 48 43 42 47 42 51 52 50 56 74 69 52 48 47 51 47 53 53 54 49 47 45 34 12
72 69 66 60 66 65 66 65 69 68 71 69 67 62 51 41 64 73 69 72 57 49 51 41 40 45 54 49 54 57 76 60 53 53 53 57 61 53 57 61 51 49 45 33 28
71 67 62 58 59 61 67 68 65 68 68 69 66 65 57 39 68 44 44 54 52 49 49 48 48 50 55 59 53 64 63 58 55 67 62 61 60 63 59 62 45 48 47 46 40
65 61 50 50 48 64 69 67 68 67 69 71 66 63 47 56 63 41 43 35 44 45 50 49 50 49 57 59 52 66 57 56 64 70 64 63 68 71 70 66 64 53 56 57 56
61 53 47 42 45 62 69 68 69 70 68 66 64 58 50 66 47 51 39 40 44 41 44 47 50 45 51 50 60 51 64 71 66 67 67 73 74 67 61 58 73 69 65 64 63
57 50 42 33 30 41 67 67 66 67 67 63 62 58 63 57 37 39 38 35 37 40 47 44 41 47 43 50 47 59 56 57 66 63 64 58 88 77 68 72 78 86 84 76 72
52 50 46 37 35 30 62 64 64 65 63 59 59 55 63 56 58 46 34 36 36 28 37 41 39 47 43 40 44 50 55 64 55 58 63 58 98 67 65 71 81 87 93 94 81
50 52 49 45 40 33 25 59 60 59 59 57 55 52 48 36 51 46 42 34 35 34 31 31 37 48 45 47 49 52 60 63 65 61 64 59 79 65 67 71 78 82 85 89 91
50 48 43 42 38 36 24 58 58 56 50 49 54 52 50 51 36 40 43 34 37 32 30 39 45 53 55 56 66 59 61 62 61 50 51 70 85 86 78 73 71 74 79 84 91
50 41 39 39 39 45 40 42 36 42 51 52 54 51 44 41 37 36 37 32 33 40 36 41 53 61 55 54 54 51 54 58 61 64 70 73 78 82 78 81 85 85 85 86 89
49 41 35 36 40 48 36 35 35 35 54 61 46 46 45 39 45 30 30 39 34 38 35 41 58 49 44 49 52 50 56 64 63 54 61 73 90 89 88 88 87 90 92 90 83
52 35 30 32 32 32 33 37 37 38 52 50 43 51 32 32 40 41 34 36 33 35 34 44 41 38 43 49 51 53 57 59 60 59 55 71 85 74 68 70 72 75 80 85 84
38 24 23 12 16 27 34 33 33 37 54 55 47 50 40 28 37 35 34 34 36 35 31 35 35 38 41 47 44 50 44 45 50 58 66 52 77 70 71 76 71 69 57 55 55
34 14 36 5 20 24 35 30 34 40 61 52 50 39 37 34 28 43 38 35 36 34 39 35 34 37 44 45 40 45 37 41 45 52 60 57 63 58 54 61 55 48 47 48 50
27 17 35 21 26 39 40 35 40 49 47 45 43 46 35 30 38 36 31 28 25 32 31 34 31 30 38 36 40 28 38 42 45 49 60 51 51 56 44 41 39 45 50 52 57
38 41 39 31 36 46 40 43 52 42 41 48 47 38 27 31 31 33 32 28 34 38 39 34 35 32 27 29 31 34 38 48 50 48 51 42 46 55 50 47 49 62 60 59 58
62 58 39 41 50 48 41 45 38 34 43 38 39 28 30 34 31 31 28 32 31 29 31 40 45 36 33 38 38 37 38 40 44 45 47 41 47 44 42 46 49 47 49 51 57
57 56 44 37 36 33 28 26 34 43 49 46 29 33 34 31 31 31 35 33 31 31 34 35 39 32 30 30 29 34 38 34 39 43 50 46 51 59 46 37 46 52 53 60 69
42 35 30 27 24 22 23 25 29 40 44 39 38 38 39 36 34 35 35 38 34 35 30 31 33 30 29 27 30 32 17 33 36 41 46 46 55 48 42 46 50 54 66 75 83
42 37 35 23 28 19 28 29 28 33 35 37 36 33 31 33 35 39 42 35 50 41 35 28 26 29 27 37 28 26 32 31 31 39 45 54 46 40 44 49 55 67 86 89 85
33 47 30 22 33 25 26 33 34 32 32 31 28 29 34 34 35 40 41 39 53 40 41 40 31 31 37 35 39 39 34 31 39 40 40 45 53 43 50 43 62 92 83 78 76
42 35 31 35 24 21 27 30 29 26 28 36 34 35 36 34 33 41 51 46 43 51 52 44 36 33 34 38 40 41 40 36 34 38 43 46 49 48 47 72 89 85 80 79 80
39 32 17 22 29 19 18 18 21 20 20 26 29 26 24 34 33 44 38 34 46 51 48 36 39 40 37 34 31 39 42 26 19 44 47 42 37 59 59 60 87 77 73 72 73
35 38 32 19 18 16 20 21 16 15 14 16 17 11 20 33 32 37 37 31 31 38 34 35 40 42 49 51 50 51 50 42 51 48 46 46 34 37 32 22 59 61 70 72 66
37 36 30 31 23 23 21 21 21 24 23 16 9 17 22 24 36 38 34 36 35 30 30 34 40 39 48 48 51 58 60 61 59 50 46 38 33 25 9 29 57 58 56 60 59
29 28 29 28 30 27 27 27 26 27 24 21 24 24 22 26 26 27 31 26 32 26 33 35 37 40 45 42 49 54 56 57 48 39 21 13 9 11 21 34 46 40 45 49 50
Wind_Direction
337 334 329 326 317 312 308 300 292 286 286 284 286 280 274 272 270 263 253 260 255 259 258 249 250 253 255 255 257 258 254 253 259 259 261 273 272 276 281 278 282 279 283 289 281
336 331 326 321 314 305 301 297 288 284 279 280 279 293 276 272 266 256 259 257 256 250 251 246 244 245 248 250 254 252 252 255 264 262 264 268 275 277 276 276 278 278 284 292 264
339 336 330 322 313 306 297 294 287 285 277 274 272 278 275 273 263 260 258 248 249 244 246 250 252 245 246 251 251 255 253 257 263 261 266 269 271 277 274 269 275 278 283 286 279
346 343 338 329 321 312 300 290 286 282 279 268 269 270 273 266 251 273 266 245 240 239 242 245 246 244 246 247 252 256 259 260 262 259 265 269 273 272 271 268 283 285 285 280 277
350 350 349 342 329 309 296 288 283 281 276 266 265 266 267 253 252 275 276 238 233 232 235 239 241 244 245 247 254 254 261 261 260 261 266 269 269 269 268 270 274 282 281 278 277
356 359 2 358 346 318 297 289 280 277 272 265 260 267 259 249 264 263 274 237 234 229 234 236 243 246 249 255 248 262 257 258 261 263 267 266 268 269 273 275 270 273 274 276 277
3 4 7 12 9 348 303 290 280 273 267 262 255 257 248 252 265 266 264 236 231 235 234 238 247 245 255 252 259 256 262 262 260 264 267 275 264 266 272 273 272 268 268 273 276
4 6 6 11 12 13 318 290 280 270 263 257 252 251 250 253 251 252 253 238 235 239 243 236 245 246 255 259 258 256 260 258 265 265 268 271 258 271 278 274 272 271 269 268 274
3 1 2 4 9 11 14 292 278 265 257 253 243 240 245 249 243 240 235 234 237 240 246 232 243 245 250 247 253 256 258 259 265 268 269 267 270 277 281 274 275 275 274 273 273
359 358 0 2 6 8 16 285 271 260 250 241 234 238 241 238 239 233 234 243 238 232 232 237 243 241 243 245 248 255 259 262 264 272 277 272 270 267 273 278 280 280 279 276 273
356 358 358 2 7 5 9 299 273 247 227 219 221 235 241 239 229 233 232 236 240 236 236 239 236 236 240 248 257 259 262 266 269 272 276 274 276 272 275 276 276 276 277 277 277
359 1 7 9 9 2 29 286 262 241 215 218 227 225 239 223 218 226 232 230 234 236 230 241 239 244 247 249 255 262 265 268 274 279 279 278 274 273 275 276 276 276 275 276 280
355 3 9 11 20 29 284 255 253 225 206 210 226 225 225 219 220 221 226 234 228 232 238 240 251 246 245 250 255 262 265 269 271 281 286 285 280 282 287 287 286 283 281 281 280
1 1 9 41 49 32 249 248 227 213 196 204 218 219 218 223 225 225 230 238 241 232 245 251 251 245 246 248 257 260 272 274 278 281 278 295 281 287 289 286 289 288 290 295 293
360 326 248 70 85 166 223 225 208 200 186 205 206 213 211 220 210 220 237 239 235 238 242 252 252 249 249 255 261 268 278 281 285 286 286 288 287 290 300 294 298 308 301 300 302
27 53 292 140 150 187 190 200 192 184 189 202 207 202 209 227 214 218 235 241 243 246 255 260 262 267 260 265 266 272 279 286 289 288 282 290 287 291 302 306 306 313 313 307 302
65 88 118 153 160 168 179 178 174 188 196 188 189 188 199 205 216 220 227 226 239 238 243 256 260 267 266 266 272 272 274 274 278 280 282 296 293 290 299 300 302 303 308 311 311
80 94 115 131 141 153 167 174 181 201 199 183 178 181 204 209 215 225 233 233 246 254 245 246 247 253 265 261 265 265 269 272 277 281 286 300 292 303 315 311 312 319 319 321 320
91 101 114 127 148 156 165 186 195 188 190 182 173 198 210 220 225 227 234 235 245 250 251 250 254 267 271 270 270 269 268 281 286 294 293 296 299 302 316 319 320 321 323 320 315
102 117 128 145 142 160 173 168 178 186 171 191 199 214 214 221 224 228 229 238 245 247 257 256 255 266 265 270 276 274 288 283 287 294 295 297 300 302 317 320 321 325 320 316 314
104 113 114 130 130 165 151 162 162 176 191 201 209 216 225 224 231 229 232 253 230 235 242 249 263 257 261 258 264 270 272 286 294 293 295 298 308 320 320 325 322 321 318 319 319
110 98 106 123 137 158 158 168 172 187 201 210 222 226 225 227 227 227 234 237 218 234 234 236 251 252 248 251 250 261 277 290 289 295 301 304 298 317 319 337 329 322 329 329 327
92 106 114 113 129 141 157 170 180 200 216 216 228 230 233 233 237 229 219 230 231 223 221 227 243 253 257 260 264 267 274 284 293 294 295 298 293 325 338 320 315 328 335 333 332
86 117 180 145 142 170 176 186 193 214 234 241 245 250 240 230 239 226 231 242 217 219 224 240 243 246 258 271 283 272 273 291 303 275 271 221 241 269 278 329 319 338 344 344 342
96 104 117 235 251 246 215 223 240 247 257 273 265 261 244 237 243 237 234 237 242 238 243 251 250 256 251 254 263 258 255 269 212 199 257 257 245 266 275 297 350 354 349 349 355
93 102 125 133 171 262 251 274 281 265 278 277 301 259 267 249 242 238 241 239 243 254 259 261 261 273 264 273 267 251 239 230 222 215 223 234 253 265 337 14 1 2 4 4 8
102 109 104 119 305 300 281 284 292 281 274 275 258 263 267 271 271 255 258 261 267 268 262 268 274 278 268 283 277 254 235 205 204 196 178 186 240 11 14 14 12 20 22 19 22